Home   Weather   Gitarama   Past weeks

Flag for Rwanda Past Weather in Gitarama, Rwanda — Yesterday and Last 2 Weeks

Now
70 °F

Passing clouds.


Feels Like: 70 °F
Forecast: 63 / 75 °F
Wind: 15 mph from Southwest

Location: Kigali Airport

Current Time: Sep 25, 2016 at 9:18:28 PM

Latest Report: Sep 25, 2016 at 6:30 PM


Visibility: N/A

Pressure: 30.01 "Hg (24.14 "Hg at 1872m altitude)

Humidity: 69%

Dew Point: 59 °F

Location of GitaramaLocation

Past Weather in Gitarama — Graph

°F

Gitarama Temperature Yesterday

Maximum temperature yesterday: 86 °F (at 1:30 PM)
Minimum temperature yesterday: 72 °F (at 7:00 PM)
Average temperature yesterday: 80 °F

High & Low Weather Summary for the Past Weeks

 TemperatureHumidityPressure
High88 °F (Sep 13, 3:00 PM)100% (Sep 20, 6:30 AM)30.24 "Hg (Sep 20, 6:30 AM)
Low61 °F (Sep 17, 4:00 AM)22% (Sep 13, 3:00 PM)29.95 "Hg (Sep 25, 4:00 PM)
Average74 °F56%30.12 "Hg
* Reported Sep 10 6:00 PM — Sep 25 6:30 PM, Gitarama, Weather by CustomWeather, © 2016

Note: Actual official high and low records may vary slightly from our data, if they occured in-between our weather recording intervals... More about our weather records

Advertising

Gitarama Weather History for the Previous 24 Hours

Scroll right to see more
 ConditionsComfort  
Time TempWeatherWind HumidityBarometerVisibility
6:30 PM
Sun, Sep 25
70 °FPassing clouds.15 mph69%30.01 "HgN/A
5:00 PM81 °FScattered clouds.7 mph39%29.95 "HgN/A
4:00 PM82 °FScattered clouds.6 mph37%29.95 "HgN/A
2:30 PM84 °FScattered clouds.6 mph33%29.98 "HgN/A
2:00 PM86 °FScattered clouds.7 mph33%29.98 "HgN/A
12:30 PM82 °FScattered clouds.12 mph42%30.07 "HgN/A
12:00 PM82 °FScattered clouds.12 mph37%30.09 "HgN/A
11:00 AM79 °FPartly sunny.7 mph51%30.12 "HgN/A
10:00 AM77 °FWarm.5 mph54%30.15 "Hg0 mi
9:30 AM73 °FBroken clouds.3 mph61%30.15 "HgN/A
8:30 AM70 °FScattered clouds.No wind69%30.15 "HgN/A
8:00 AM70 °FScattered clouds.No wind64%30.15 "HgN/A
5:00 AM64 °FPassing clouds.No wind78%30.09 "HgN/A
4:30 AM64 °FPassing clouds.3 mph78%30.09 "HgN/A
3:30 AM64 °FPassing clouds.3 mph78%30.07 "HgN/A
1:30 AM66 °FPassing clouds.3 mph78%30.07 "HgN/A
12:00 AM70 °FPassing clouds.No wind64%30.12 "HgN/A
Weather by CustomWeather, © 2016

See weather overviewHow to use our weather pages